• In Italy
  • List of Countries
  • For 7 days
  • Water Temperature
  • Satellite Maps
  • Weather Map
  • Weather Widgets
  • user-avatar
    Login

    Hourly Weather La Rioja

    Today, 19 August, Saturday

    Time Temperature Precipitation Wind Pressure Humidity
    00:00 +21°C° 0 mm 2 mps 707 mmHg 13%
    01:00 +20°C° 0 mm 3 mps 707 mmHg 12%
    02:00 +19°C° 0 mm 3 mps 708 mmHg 12%
    03:00 +19°C° 0 mm 3 mps 708 mmHg 12%
    04:00 +18°C° 0 mm 3 mps 709 mmHg 12%
    05:00 +18°C° 0 mm 3 mps 709 mmHg 12%
    06:00 +18°C° 0 mm 3 mps 710 mmHg 14%
    07:00 +18°C° 0 mm 3 mps 711 mmHg 16%
    08:00 +18°C° 0 mm 3 mps 712 mmHg 18%
    09:00 +19°C° 0 mm 3 mps 712 mmHg 21%
    10:00 +21°C° 0 mm 4 mps 713 mmHg 23%
    11:00 +22°C° 0 mm 4 mps 713 mmHg 26%
    12:00 +22°C° 0 mm 4 mps 713 mmHg 26%
    13:00 +24°C° 0 mm 3 mps 712 mmHg 26%
    14:00 +25°C° 0 mm 3 mps 712 mmHg 26%
    15:00 +25°C° 0 mm 3 mps 712 mmHg 28%
    16:00 +23°C° 0 mm 4 mps 712 mmHg 29%
    17:00 +23°C° 0 mm 4 mps 712 mmHg 30%
    18:00 +22°C° 0 mm 4 mps 713 mmHg 34%
    19:00 +21°C° 0 mm 4 mps 714 mmHg 39%
    20:00 +19°C° 0 mm 4 mps 715 mmHg 43%
    21:00 +19°C° 0 mm 3 mps 716 mmHg 45%
    22:00 +18°C° 0 mm 3 mps 717 mmHg 48%
    23:00 +17°C° 0 mm 2 mps 718 mmHg 51%

    Tomorrow, 20 August, Sunday

    Time Temperature Precipitation Wind Pressure Humidity
    00:00 +16°C° 0 mm 2 mps 719 mmHg 53%
    01:00 +15°C° 0 mm 2 mps 719 mmHg 55%
    02:00 +15°C° 0 mm 1 mps 719 mmHg 57%
    03:00 +14°C° 0 mm 1 mps 719 mmHg 59%
    04:00 +14°C° 0 mm 1 mps 720 mmHg 61%
    05:00 +13°C° 0 mm 1 mps 720 mmHg 63%
    06:00 +14°C° 0 mm 1 mps 721 mmHg 62%
    07:00 +14°C° 0 mm 2 mps 722 mmHg 60%
    08:00 +14°C° 0 mm 2 mps 722 mmHg 58%
    09:00 +16°C° 0 mm 2 mps 723 mmHg 52%
    10:00 +17°C° 0 mm 2 mps 723 mmHg 47%
    11:00 +19°C° 0 mm 3 mps 723 mmHg 41%
    12:00 +20°C° 0 mm 3 mps 722 mmHg 38%
    13:00 +21°C° 0 mm 3 mps 722 mmHg 35%
    14:00 +22°C° 0 mm 4 mps 721 mmHg 32%
    15:00 +22°C° 0 mm 4 mps 720 mmHg 31%
    16:00 +22°C° 0 mm 4 mps 720 mmHg 30%
    17:00 +22°C° 0 mm 4 mps 719 mmHg 30%
    18:00 +21°C° 0 mm 4 mps 719 mmHg 32%
    19:00 +20°C° 0 mm 3 mps 720 mmHg 34%
    20:00 +18°C° 0 mm 3 mps 720 mmHg 36%
    21:00 +17°C° 0 mm 3 mps 720 mmHg 37%
    22:00 +17°C° 0 mm 3 mps 720 mmHg 39%
    23:00 +16°C° 0 mm 2 mps 720 mmHg 40%

    Day after tomorrow, 21 August, Monday

    Time Temperature Precipitation Wind Pressure Humidity
    00:00 +16°C° 0 mm 2 mps 719 mmHg 40%
    01:00 +15°C° 0 mm 2 mps 719 mmHg 41%
    02:00 +14°C° 0 mm 2 mps 719 mmHg 42%
    03:00 +14°C° 0 mm 2 mps 718 mmHg 42%
    04:00 +14°C° 0 mm 2 mps 718 mmHg 43%
    05:00 +13°C° 0 mm 2 mps 717 mmHg 43%
    06:00 +14°C° 0 mm 2 mps 718 mmHg 42%
    07:00 +14°C° 0 mm 2 mps 718 mmHg 41%
    08:00 +14°C° 0 mm 2 mps 719 mmHg 39%
    09:00 +16°C° 0 mm 2 mps 719 mmHg 35%
    10:00 +18°C° 0 mm 2 mps 718 mmHg 31%
    11:00 +20°C° 0 mm 2 mps 718 mmHg 27%
    12:00 +21°C° 0 mm 2 mps 717 mmHg 25%
    13:00 +23°C° 0 mm 2 mps 716 mmHg 23%
    14:00 +25°C° 0 mm 2 mps 716 mmHg 21%
    15:00 +25°C° 0 mm 2 mps 715 mmHg 21%
    16:00 +25°C° 0 mm 2 mps 715 mmHg 21%
    17:00 +25°C° 0 mm 2 mps 714 mmHg 21%
    18:00 +24°C° 0 mm 2 mps 714 mmHg 24%
    19:00 +21°C° 0 mm 2 mps 714 mmHg 26%
    20:00 +20°C° 0 mm 2 mps 714 mmHg 29%
    21:00 +19°C° 0 mm 2 mps 714 mmHg 30%
    22:00 +18°C° 0 mm 2 mps 713 mmHg 32%
    23:00 +18°C° 0 mm 2 mps 713 mmHg 33%

    22 August, Tuesday

    Time Temperature Precipitation Wind Pressure Humidity
    00:00 +17°C° 0 mm 2 mps 712 mmHg 34%
    01:00 +17°C° 0 mm 2 mps 711 mmHg 34%
    02:00 +17°C° 0 mm 2 mps 710 mmHg 35%
    03:00 +16°C° 0 mm 2 mps 709 mmHg 35%
    04:00 +16°C° 0 mm 2 mps 709 mmHg 35%
    05:00 +15°C° 0 mm 2 mps 708 mmHg 35%
    06:00 +16°C° 0 mm 2 mps 708 mmHg 32%
    07:00 +17°C° 0 mm 2 mps 708 mmHg 30%
    08:00 +18°C° 0 mm 2 mps 708 mmHg 27%
    09:00 +20°C° 0 mm 2 mps 708 mmHg 24%
    10:00 +23°C° 0 mm 2 mps 707 mmHg 20%
    11:00 +26°C° 0 mm 3 mps 707 mmHg 17%
    12:00 +27°C° 0 mm 3 mps 706 mmHg 15%
    13:00 +28°C° 0 mm 3 mps 705 mmHg 14%
    14:00 +30°C° 0 mm 3 mps 704 mmHg 12%
    15:00 +30°C° 0 mm 2 mps 704 mmHg 12%
    16:00 +30°C° 0 mm 2 mps 703 mmHg 13%
    17:00 +30°C° 0 mm 2 mps 703 mmHg 13%
    18:00 +28°C° 0 mm 2 mps 703 mmHg 15%
    19:00 +26°C° 0 mm 2 mps 704 mmHg 17%
    20:00 +23°C° 0 mm 2 mps 704 mmHg 19%
    21:00 +23°C° 0 mm 2 mps 705 mmHg 20%
    22:00 +21°C° 0 mm 2 mps 705 mmHg 21%
    23:00 +21°C° 0 mm 3 mps 705 mmHg 21%

    23 August, Wednesday

    Time Temperature Precipitation Wind Pressure Humidity
    00:00 +20°C° 0 mm 3 mps 705 mmHg 23%
    01:00 +19°C° 0 mm 3 mps 705 mmHg 24%
    02:00 +19°C° 0 mm 3 mps 705 mmHg 25%
    03:00 +18°C° 0 mm 3 mps 706 mmHg 27%
    04:00 +18°C° 0 mm 3 mps 706 mmHg 28%
    05:00 +17°C° 0 mm 3 mps 706 mmHg 29%
    06:00 +18°C° 0 mm 3 mps 708 mmHg 28%
    07:00 +18°C° 0 mm 3 mps 709 mmHg 28%
    08:00 +19°C° 0 mm 3 mps 710 mmHg 27%
    09:00 +20°C° 0 mm 4 mps 711 mmHg 25%
    10:00 +22°C° 0 mm 5 mps 712 mmHg 23%
    11:00 +23°C° 0 mm 6 mps 713 mmHg 21%
    12:00 +25°C° 0 mm 5 mps 712 mmHg 21%
    13:00 +25°C° 0 mm 5 mps 712 mmHg 21%
    14:00 +25°C° 0 mm 4 mps 711 mmHg 21%
    15:00 +25°C° 0 mm 4 mps 711 mmHg 22%
    16:00 +25°C° 0 mm 4 mps 711 mmHg 23%
    17:00 +24°C° 0 mm 3 mps 711 mmHg 23%
    18:00 +22°C° 0 mm 3 mps 711 mmHg 26%
    19:00 +21°C° 0 mm 3 mps 712 mmHg 29%
    20:00 +19°C° 0 mm 3 mps 713 mmHg 32%
    21:00 +18°C° 0 mm 3 mps 713 mmHg 34%
    22:00 +17°C° 0 mm 3 mps 713 mmHg 37%
    23:00 +16°C° 0 mm 2 mps 712 mmHg 40%

    24 August, Thursday

    Time Temperature Precipitation Wind Pressure Humidity
    00:00 +15°C° 0 mm 2 mps 712 mmHg 41%
    01:00 +15°C° 0 mm 2 mps 712 mmHg 41%
    02:00 +14°C° 0 mm 2 mps 711 mmHg 42%
    03:00 +14°C° 0 mm 2 mps 711 mmHg 43%
    04:00 +14°C° 0 mm 2 mps 710 mmHg 44%
    05:00 +13°C° 0 mm 2 mps 710 mmHg 45%
    06:00 +14°C° 0 mm 2 mps 710 mmHg 44%
    07:00 +14°C° 0 mm 2 mps 710 mmHg 44%
    08:00 +15°C° 0 mm 2 mps 710 mmHg 43%
    09:00 +17°C° 0 mm 2 mps 710 mmHg 40%
    10:00 +18°C° 0 mm 2 mps 710 mmHg 37%
    11:00 +20°C° 0 mm 2 mps 710 mmHg 35%
    12:00 +23°C° 0 mm 2 mps 709 mmHg 34%
    13:00 +24°C° 0 mm 3 mps 708 mmHg 33%
    14:00 +25°C° 0 mm 3 mps 707 mmHg 31%
    15:00 +25°C° 0 mm 3 mps 707 mmHg 33%
    16:00 +25°C° 0 mm 3 mps 707 mmHg 34%
    17:00 +25°C° 0 mm 3 mps 707 mmHg 36%
    18:00 +24°C° 0 mm 3 mps 707 mmHg 43%
    19:00 +21°C° 0 mm 2 mps 708 mmHg 51%
    20:00 +20°C° 0 mm 2 mps 708 mmHg 59%
    21:00 +19°C° 0 mm 2 mps 708 mmHg 63%
    22:00 +19°C° 0 mm 2 mps 708 mmHg 67%
    23:00 +19°C° 0 mm 1 mps 708 mmHg 71%
    Show more